Osceola, IA

2:00 PM CST on February 14, 2016 (GMT -0600)
Osceola Municipal

Weather History for KI75 - April, 2014

Change the Weather History Date:

Tuesday, April 15, 2014

  Actual Average (KLWD) Record (KLWD)
Temperature  
Mean Temperature 34 °F 52 °F  
Max Temperature 46 °F 62 °F 86 °F (2002)
Min Temperature 22 °F 41 °F 24 °F (2014)
Degree Days  
Heating Degree Days 32 14  
Month to date heating degree days 237  
Since 1 July heating degree days 5726  
Cooling Degree Days 0 0  
Month to date cooling degree days 0  
Year to date cooling degree days 1  
Moisture  
Dew Point 21 °F    
Average Humidity 62    
Maximum Humidity 84    
Minimum Humidity 36    
Precipitation  
Precipitation 0.00 in 0.13 in 1.34 in (2011)
Month to date precipitation 1.48  
Sea Level Pressure  
Sea Level Pressure 30.12 in    
Wind  
Wind Speed 6 mph (WSW)    
Max Wind Speed 15 mph    
Max Gust Speed 17 mph    
Visibility 10 miles    
Events      
T = Trace of Precipitation, MM = Missing Value Source: NWS Daily Summary

Daily Weather History Graph

Daily Weather History Graph

Search for Another Location

Airport or City:

Trip Planner

Search our weather history database for the weather conditions in past years. The results will help you decide how hot, cold, wet, or windy it might be!

Date:

Astronomy

Apr. 15, 2014 Rise Set
Actual Time 6:35 AM CDT 7:54 PM CDT
Civil Twilight 6:07 AM CDT 8:23 PM CDT
Nautical Twilight 5:32 AM CDT 8:57 PM CDT
Astronomical Twilight 4:56 AM CDT 9:33 PM CDT
Moon 8:36 PM CDT (4/15) 6:43 AM CDT (4/15)
Length of Visible Light 14h 16m
Length of Day
13h 19m
Full, 100% of the Moon is Illuminated
Apr 15
Full
Apr 22
Last Quarter
Apr 29
New
May 6
First Quarter
May 14
Full

Hourly Weather History & Observations

Time (CDT) Temp. Windchill Dew Point Humidity Pressure Visibility Wind Dir Wind Speed Gust Speed Precip Events Conditions
12:15 AM 28.2 °F 23.1 °F 19.8 °F 71% 30.15 in 10.0 mi WNW 4.6 mph - N/A   Clear
12:35 AM 27.9 °F 24.0 °F 20.5 °F 74% 30.16 in 10.0 mi WNW 3.5 mph - N/A   Clear
12:55 AM 27.5 °F 22.2 °F 20.1 °F 74% 30.15 in 10.0 mi WNW 4.6 mph - N/A   Clear
1:15 AM 26.4 °F 22.4 °F 19.0 °F 74% 30.15 in 10.0 mi WNW 3.5 mph - N/A   Clear
1:35 AM 27.3 °F 23.4 °F 18.9 °F 70% 30.15 in 10.0 mi West 3.5 mph - N/A   Clear
1:55 AM 27.3 °F 23.4 °F 20.1 °F 74% 30.15 in 10.0 mi WNW 3.5 mph - N/A   Clear
2:15 AM 25.9 °F 20.3 °F 19.4 °F 76% 30.15 in 10.0 mi WNW 4.6 mph - N/A   Clear
2:35 AM 25.5 °F 19.9 °F 19.9 °F 79% 30.15 in 10.0 mi WNW 4.6 mph - N/A   Clear
2:55 AM 24.8 °F 19.1 °F 19.2 °F 79% 30.15 in 10.0 mi WNW 4.6 mph - N/A   Clear
3:15 AM 25.0 °F 19.3 °F 19.4 °F 79% 30.15 in 10.0 mi West 4.6 mph - N/A   Clear
3:35 AM 25.3 °F 21.1 °F 20.3 °F 81% 30.15 in 10.0 mi West 3.5 mph - N/A   Clear
3:55 AM 24.8 °F 19.1 °F 20.3 °F 83% 30.15 in 10.0 mi West 4.6 mph - N/A   Clear
4:15 AM 24.8 °F 20.5 °F 20.3 °F 83% 30.15 in 10.0 mi West 3.5 mph - N/A   Clear
4:35 AM 24.6 °F 20.3 °F 20.3 °F 84% 30.15 in 10.0 mi West 3.5 mph - N/A   Clear
4:55 AM 23.7 °F 16.6 °F 19.4 °F 84% 30.15 in 10.0 mi West 5.8 mph - N/A   Clear
5:15 AM 23.7 °F 17.8 °F 19.2 °F 83% 30.16 in 10.0 mi West 4.6 mph - N/A   Clear
5:35 AM 23.2 °F 17.2 °F 19.0 °F 84% 30.16 in 10.0 mi West 4.6 mph - N/A   Clear
5:55 AM 23.0 °F 17.0 °F 18.7 °F 84% 30.16 in 10.0 mi WNW 4.6 mph - N/A   Clear
6:15 AM 23.0 °F 15.8 °F 18.1 °F 82% 30.17 in 10.0 mi WNW 5.8 mph - N/A   Clear
6:35 AM 22.8 °F 16.7 °F 18.1 °F 82% 30.18 in 10.0 mi WNW 4.6 mph - N/A   Clear
6:55 AM 23.9 °F 18.0 °F 18.9 °F 81% 30.18 in 10.0 mi WNW 4.6 mph - N/A   Clear
7:15 AM 23.9 °F 18.0 °F 19.2 °F 82% 30.19 in 10.0 mi WNW 4.6 mph - N/A   Clear
7:35 AM 25.0 °F 19.3 °F 20.3 °F 82% 30.19 in 10.0 mi WNW 4.6 mph - N/A   Clear
7:55 AM 26.2 °F 18.6 °F 21.0 °F 81% 30.19 in 10.0 mi NNW 6.9 mph - N/A   Clear
8:15 AM 27.1 °F 18.9 °F 21.4 °F 79% 30.19 in 10.0 mi NNW 8.1 mph - N/A   Clear
8:35 AM 27.7 °F 20.4 °F 21.6 °F 78% 30.19 in 10.0 mi NNW 6.9 mph - N/A   Clear
8:55 AM 28.8 °F 20.9 °F 21.4 °F 74% 30.19 in 10.0 mi NNW 8.1 mph - N/A   Clear
9:15 AM 29.3 °F 23.2 °F 21.4 °F 72% 30.19 in 10.0 mi NNW 5.8 mph - N/A   Clear
9:35 AM 30.0 °F 26.5 °F 21.0 °F 69% 30.20 in 10.0 mi North 3.5 mph - N/A   Clear
9:55 AM 31.5 °F 26.8 °F 21.0 °F 65% 30.20 in 10.0 mi WNW 4.6 mph - N/A   Clear
10:15 AM 32.0 °F 28.7 °F 20.7 °F 63% 30.20 in 10.0 mi NW 3.5 mph - N/A   Clear
10:35 AM 32.7 °F 28.3 °F 20.7 °F 61% 30.20 in 10.0 mi NW 4.6 mph - N/A   Clear
10:55 AM 34.0 °F 28.0 °F 21.7 °F 61% 30.20 in 10.0 mi WNW 6.9 mph - N/A   Clear
11:35 AM 34.3 °F 27.0 °F 19.0 °F 54% 30.20 in 10.0 mi NW 9.2 mph - N/A   Clear
11:55 AM 35.6 °F 29.2 °F 22.3 °F 58% 30.19 in 10.0 mi NNW 8.1 mph - N/A   Clear
12:35 PM 37.8 °F 33.3 °F 20.7 °F 50% 30.19 in 10.0 mi West 5.8 mph 9.2 mph N/A   Scattered Clouds
1:15 PM 38.7 °F 34.3 °F 21.0 °F 49% 30.17 in 10.0 mi West 5.8 mph - N/A   Scattered Clouds
1:35 PM 39.2 °F 35.9 °F 18.9 °F 44% 30.16 in 10.0 mi WSW 4.6 mph - N/A   Scattered Clouds
1:55 PM 39.7 °F 36.5 °F 20.8 °F 47% 30.16 in 10.0 mi SSW 4.6 mph - N/A   Clear
2:15 PM 40.3 °F 36.3 °F 20.1 °F 45% 30.15 in 10.0 mi West 5.8 mph - N/A   Scattered Clouds
2:35 PM 41.2 °F 36.6 °F 19.9 °F 43% 30.14 in 10.0 mi SSW 6.9 mph - N/A   Scattered Clouds
2:55 PM 40.8 °F - 18.1 °F 40% 30.13 in 10.0 mi Calm Calm - N/A   Clear
3:15 PM 42.1 °F 37.7 °F 19.0 °F 40% 30.11 in 10.0 mi SW 6.9 mph - N/A   Clear
3:35 PM 43.3 °F 38.1 °F 21.0 °F 41% 30.10 in 10.0 mi SSW 9.2 mph - N/A   Clear
3:55 PM 43.3 °F - 18.3 °F 37% 30.09 in 10.0 mi Calm Calm - N/A   Clear
4:15 PM 43.7 °F 40.3 °F 18.1 °F 36% 30.09 in 10.0 mi South 5.8 mph - N/A   Clear
4:35 PM 44.4 °F 39.5 °F 21.2 °F 40% 30.09 in 10.0 mi South 9.2 mph - N/A   Clear
4:55 PM 45.9 °F 40.8 °F 22.3 °F 39% 30.08 in 10.0 mi SSW 10.4 mph - N/A   Clear
5:15 PM 45.9 °F 40.8 °F 21.7 °F 38% 30.06 in 10.0 mi South 10.4 mph - N/A   Clear
5:35 PM 45.9 °F 41.2 °F 20.8 °F 37% 30.06 in 10.0 mi South 9.2 mph - N/A   Clear
5:55 PM 45.5 °F 40.8 °F 21.2 °F 38% 30.05 in 10.0 mi SSE 9.2 mph 17.3 mph N/A   Clear
6:15 PM 45.5 °F 41.8 °F 21.4 °F 38% 30.05 in 10.0 mi South 6.9 mph 16.1 mph N/A   Clear
6:35 PM 45.0 °F 40.6 °F 21.2 °F 39% 30.04 in 10.0 mi SSE 8.1 mph - N/A   Clear
6:55 PM 45.5 °F 40.8 °F 22.8 °F 41% 30.04 in 10.0 mi SSE 9.2 mph - N/A   Clear
7:15 PM 43.9 °F 39.3 °F 23.7 °F 45% 30.03 in 10.0 mi SSE 8.1 mph - N/A   Clear
7:35 PM 42.8 °F 39.3 °F 23.5 °F 47% 30.03 in 10.0 mi SSE 5.8 mph - N/A   Clear
7:55 PM 41.4 °F 36.8 °F 24.4 °F 51% 30.03 in 10.0 mi SSE 6.9 mph - N/A   Clear
8:15 PM 39.2 °F 35.0 °F 24.6 °F 56% 30.03 in 10.0 mi SE 5.8 mph - N/A   Clear
8:35 PM 38.3 °F 32.5 °F 25.5 °F 60% 30.03 in 10.0 mi SE 8.1 mph - N/A   Clear
8:55 PM 38.5 °F 32.7 °F 25.5 °F 60% 30.02 in 10.0 mi SE 8.1 mph - N/A   Clear
9:15 PM 38.5 °F 32.1 °F 25.5 °F 60% 30.02 in 10.0 mi SE 9.2 mph - N/A   Clear
9:35 PM 38.8 °F 31.6 °F 25.5 °F 59% 30.02 in 10.0 mi SE 11.5 mph - N/A   Clear
9:55 PM 38.8 °F 31.6 °F 26.1 °F 60% 30.02 in 10.0 mi SE 11.5 mph - N/A   Clear
10:15 PM 38.8 °F 30.4 °F 26.1 °F 60% 30.01 in 10.0 mi SE 15.0 mph - N/A   Clear
10:35 PM 38.5 °F 30.7 °F 26.4 °F 62% 30.01 in 10.0 mi SE 12.7 mph - N/A   Clear
10:55 PM 37.9 °F 30.5 °F 26.8 °F 64% 30.00 in 10.0 mi SE 11.5 mph - N/A   Clear
11:15 PM 37.4 °F 29.8 °F 27.1 °F 66% 29.99 in 10.0 mi SE 11.5 mph - N/A   Clear
11:35 PM 37.6 °F 29.6 °F 27.5 °F 67% 29.98 in 10.0 mi SE 12.7 mph - N/A   Clear
11:55 PM 38.3 °F 30.1 °F 28.0 °F 67% 29.98 in 10.0 mi SSE 13.8 mph - N/A   Clear